Tracking 18850 objects as of 22-Nov-2017
HD Live streaming from Space Station
objects crossing your sky now

OPS 5712 (P/L 160)

Track OPS 5712 (P/L 160) now!
10-day predictions
OPS 5712 (P/L 160) is classified as:


NORAD ID: 2826
Int'l Code: 1967-053A
Perigee: 734.1 km
Apogee: 743.7 km
Inclination: 69.9 °
Period: 99.4 minutes
Semi major axis: 7109 km
RCS: 0.3991 m2 (medium)
Launch date: May 31, 1967
Source: United States (US)
Launch site: AIR FORCE WESTERN TEST RANGE (AFWTR)
aabbcc
Your satellite tracking list
Your tracking list is empty




NASA's NSSDC Master Catalog

Two Line Element Set (TLE):
1  2826U 67053A   17325.89715948 +.00000780 +00000-0 +22561-3 0  9992
2  2826 069.9289 233.7904 0006775 210.8559 149.2176 14.48122047611018
Source of the keplerian elements: AFSPC